This is the latest recevied weather packets stored in our database for station/object F5TND-3. If no packets are shown the sender has not sent any weather packets the latest 10 day(s).
| Time | Temp. | Humidity | Pressure | Rain* | Wind** | Luminosity | Snow |
|---|---|---|---|---|---|---|---|
| 1787822357 | 22.22° C | 100% | 1007.5 hPa | - | - | - | - |
| 1787819991 | 22.78° C | 100% | 1007.5 hPa | - | - | - | - |
| 1787819954 | 22.78° C | 100% | 1007.5 hPa | - | - | - | - |
| 1787815152 | 21.11° C | 100% | 1007.6 hPa | - | - | - | - |
| 1787812746 | 17.78° C | 100% | 1006.9 hPa | - | - | - | - |
| 1787810346 | 17.78° C | 100% | 1007 hPa | - | - | - | - |
| 1787808560 | 17.78° C | 100% | 1006.8 hPa | - | - | - | - |
| 1787807360 | 17.78° C | 100% | 1007.4 hPa | - | - | - | - |
| 1787806192 | 17.22° C | 100% | 1006.8 hPa | - | - | - | - |
| 1787806160 | 17.22° C | 100% | 1006.8 hPa | - | - | - | - |
| 1787804959 | 16.67° C | 100% | 1006.3 hPa | - | - | - | - |
| 1787802659 | 17.22° C | 100% | 1006.7 hPa | - | - | - | - |
| 1787802592 | 17.22° C | 100% | 1006.7 hPa | - | - | - | - |
| 1787802561 | 17.22° C | 100% | 1006.7 hPa | - | - | - | - |
| 1787801361 | 17.22° C | 100% | 1006.6 hPa | - | - | - | - |
| 1787800161 | 17.22° C | 100% | 1006 hPa | - | - | - | - |
| 1787798962 | 17.22° C | 100% | 1006.4 hPa | - | - | - | - |
| 1787795361 | 17.22° C | 100% | 1006.8 hPa | - | - | - | - |
| 1787791790 | 17.22° C | 100% | 1006 hPa | - | - | - | - |
| 1787791759 | 17.22° C | 100% | 1006 hPa | - | - | - | - |
| 1787790559 | 17.22° C | 100% | 1005.6 hPa | - | - | - | - |
| 1787789359 | 17.22° C | 100% | 1005.9 hPa | - | - | - | - |
| 1787788159 | 17.78° C | 100% | 1005.7 hPa | - | - | - | - |
| 1787786959 | 17.78° C | 100% | 1005.6 hPa | - | - | - | - |
| 1787785787 | 17.78° C | 100% | 1005.3 hPa | - | - | - | - |
* Rain since midnight (hover to see other rain measurements)
** Current wind speed in m/s (hover to see current wind gust speed)